| time (UTC) | temp C | wind direction | speed KPH | gust KPH | rain 1hr cm | rain 24hr cm | rain mn cm | humidity % | barometer mb |
| 20260506150206 | 10 | 342 | 4.8 | 8.0 | 0.00 | 0.00 | 0.00 | 30 | 1013.2 |
| 20260506145504 | 11 | 281 | 1.6 | 4.8 | 0.00 | 0.00 | 0.00 | 30 | 1013.1 |
| 20260506144802 | 13 | 304 | 8.0 | 16.1 | 0.00 | 0.00 | 0.00 | 28 | 1013.1 |
| 20260506144111 | 15 | 308 | 1.6 | 4.8 | 0.00 | 0.00 | 0.00 | 28 | 1013.1 |
| 20260506143409 | 13 | 305 | 3.2 | 3.2 | 0.00 | 0.00 | 0.00 | 28 | 1013.0 |
| 20260506142709 | 13 | 252 | 1.6 | 9.7 | 0.00 | 0.00 | 0.00 | 28 | 1013.1 |
| 20260506142005 | 15 | 238 | 1.6 | 3.2 | 0.00 | 0.00 | 0.00 | 27 | 1013.0 |
| 20260506141304 | 20 | 338 | 3.2 | 9.7 | 0.00 | 0.00 | 0.00 | 25 | 1012.9 |
| 20260506140603 | 19 | 254 | 1.6 | 4.8 | 0.00 | 0.00 | 0.00 | 26 | 1012.9 |
| 20260506135901 | 18 | 269 | 4.8 | 8.0 | 0.00 | 0.00 | 0.00 | 25 | 1012.7 |
| 20260506135211 | 19 | 13 | 9.7 | 11.3 | 0.00 | 0.00 | 0.00 | 26 | 1012.8 |
| 20260506134508 | 16 | 334 | 3.2 | 11.3 | 0.00 | 0.00 | 0.00 | 29 | 1012.7 |
| 20260506133806 | 12 | 19 | 4.8 | 9.7 | 0.00 | 0.00 | 0.00 | 31 | 1012.8 |
| 20260506133104 | 12 | 304 | 8.0 | 8.0 | 0.00 | 0.00 | 0.00 | 30 | 1012.8 |
| 20260506132402 | 11 | 251 | 3.2 | 3.2 | 0.00 | 0.00 | 0.00 | 31 | 1012.9 |
| 20260506131712 | 11 | 308 | 4.8 | 9.7 | 0.00 | 0.00 | 0.00 | 33 | 1012.8 |
| 20260506131009 | 11 | 248 | 4.8 | 9.7 | 0.00 | 0.00 | 0.00 | 31 | 1012.7 |
| 20260506130307 | 12 | 334 | 1.6 | 4.8 | 0.00 | 0.00 | 0.00 | 31 | 1012.7 |
| 20260506125603 | 13 | 265 | 8.0 | 14.5 | 0.00 | 0.00 | 0.00 | 29 | 1012.8 |
| 20260506124913 | 16 | 265 | 8.0 | 12.9 | 0.00 | 0.00 | 0.00 | 27 | 1012.7 |
| 20260506124211 | 15 | 14 | 3.2 | 3.2 | 0.00 | 0.00 | 0.00 | 29 | 1012.8 |
| 20260506123508 | 16 | 321 | 3.2 | 14.5 | 0.00 | 0.00 | 0.00 | 27 | 1012.9 |
| 20260506122806 | 18 | 20 | 4.8 | 12.9 | 0.00 | 0.00 | 0.00 | 27 | 1012.9 |
| 20260506122104 | 19 | 250 | 8.0 | 19.3 | 0.00 | 0.00 | 0.00 | 27 | 1012.8 |
| 20260506121413 | 18 | 314 | 4.8 | 4.8 | 0.00 | 0.00 | 0.00 | 27 | 1012.8 |
| 20260506120711 | 17 | 13 | 8.0 | 14.5 | 0.00 | 0.00 | 0.00 | 28 | 1012.8 |
| 20260506120008 | 17 | 279 | 12.9 | 16.1 | 0.00 | 0.00 | 0.00 | 27 | 1012.9 |
| 20260506115307 | 17 | 304 | 4.8 | 19.3 | 0.00 | 0.00 | 0.00 | 27 | 1012.9 |
| 20260506114603 | 17 | 267 | 3.2 | 9.7 | 0.00 | 0.00 | 0.00 | 28 | 1012.8 |
| 20260506113912 | 17 | 276 | 3.2 | 12.9 | 0.00 | 0.00 | 0.00 | 28 | 1012.7 |
| 20260506113210 | 16 | 274 | 9.7 | 16.1 | 0.00 | 0.00 | 0.00 | 28 | 1012.7 |
| 20260506112507 | 15 | 3 | 9.7 | 27.4 | 0.00 | 0.00 | 0.00 | 26 | 1012.8 |
| 20260506111805 | 16 | 255 | 16.1 | 32.2 | 0.00 | 0.00 | 0.00 | 25 | 1012.6 |
| 20260506111103 | 16 | 249 | 9.7 | 14.5 | 0.00 | 0.00 | 0.00 | 28 | 1012.5 |
| 20260506110412 | 15 | 248 | 4.8 | 4.8 | 0.00 | 0.00 | 0.00 | 29 | 1012.4 |
| 20260506105711 | 13 | 298 | 3.2 | 3.2 | 0.00 | 0.00 | 0.00 | 31 | 1012.3 |
| 20260506105008 | 15 | 256 | 12.9 | 27.4 | 0.00 | 0.00 | 0.00 | 33 | 1012.6 |
| 20260506104306 | 14 | 356 | 11.3 | 16.1 | 0.00 | 0.00 | 0.00 | 33 | 1012.6 |
| 20260506103605 | 13 | 306 | 4.8 | 16.1 | 0.00 | 0.00 | 0.00 | 35 | 1012.4 |
| 20260506102902 | 13 | 325 | 4.8 | 12.9 | 0.00 | 0.00 | 0.00 | 33 | 1012.3 |
| 20260506102212 | 12 | 342 | 4.8 | 11.3 | 0.00 | 0.00 | 0.00 | 35 | 1012.3 |
| 20260506101509 | 11 | 255 | 1.6 | 3.2 | 0.00 | 0.00 | 0.00 | 36 | 1012.2 |
| 20260506100807 | 11 | 226 | 9.7 | 16.1 | 0.00 | 0.00 | 0.00 | 35 | 1012.1 |
| 20260506100105 | 12 | 315 | 16.1 | 22.5 | 0.00 | 0.00 | 0.00 | 37 | 1012.4 |
| 20260506095402 | 11 | 296 | 3.2 | 4.8 | 0.00 | 0.00 | 0.00 | 40 | 1012.3 |
| 20260506094712 | 10 | 255 | 4.8 | 11.3 | 0.00 | 0.00 | 0.00 | 38 | 1012.1 |
| 20260506094010 | 11 | 7 | 3.2 | 11.3 | 0.00 | 0.00 | 0.00 | 37 | 1012.1 |
| 20260506093307 | 11 | 270 | 9.7 | 19.3 | 0.00 | 0.00 | 0.00 | 38 | 1012.1 |
| 20260506092605 | 12 | 315 | 9.7 | 11.3 | 0.00 | 0.00 | 0.00 | 38 | 1012.1 |
| 20260506091901 | 12 | 334 | 8.0 | 8.0 | 0.00 | 0.00 | 0.00 | 38 | 1011.8 |
| 20260506091212 | 12 | 250 | 4.8 | 11.3 | 0.00 | 0.00 | 0.00 | 38 | 1011.9 |
| 20260506090511 | 13 | 251 | 4.8 | 9.7 | 0.00 | 0.00 | 0.00 | 38 | 1012.0 |
| 20260506085810 | 13 | 226 | 4.8 | 8.0 | 0.00 | 0.00 | 0.00 | 39 | 1012.0 |
| 20260506085108 | 12 | 300 | 3.2 | 8.0 | 0.00 | 0.00 | 0.00 | 39 | 1011.7 |
| 20260506084405 | 12 | 344 | 3.2 | 11.3 | 0.00 | 0.00 | 0.00 | 41 | 1011.8 |
| 20260506083702 | 11 | 248 | 4.8 | 4.8 | 0.00 | 0.00 | 0.00 | 38 | 1011.7 |
| 20260506083012 | 12 | 248 | 14.5 | 11.3 | 0.00 | 0.00 | 0.00 | 36 | 1011.5 |
| 20260506082309 | 13 | 351 | 9.7 | 22.5 | 0.00 | 0.00 | 0.00 | 35 | 1011.6 |
| 20260506081606 | 14 | 5 | 4.8 | 20.9 | 0.00 | 0.00 | 0.00 | 39 | 1011.6 |
| 20260506080904 | 13 | 253 | 3.2 | 8.0 | 0.00 | 0.00 | 0.00 | 39 | 1011.6 |
| 20260506080202 | 13 | 333 | 8.0 | 11.3 | 0.00 | 0.00 | 0.00 | 38 | 1011.5 |
| 20260506073404 | 12 | 259 | 11.3 | 25.7 | 0.00 | 0.00 | 0.00 | 40 | 1011.3 |
| 20260506072702 | 12 | 257 | 11.3 | 14.5 | 0.00 | 0.00 | 0.00 | 42 | 1011.3 |
| 20260506072012 | 12 | 275 | 3.2 | 9.7 | 0.00 | 0.00 | 0.00 | 45 | 1011.2 |
| 20260506071309 | 12 | 257 | 14.5 | 14.5 | 0.00 | 0.00 | 0.00 | 43 | 1011.2 |
| 20260506070607 | 13 | 311 | 8.0 | 12.9 | 0.00 | 0.00 | 0.00 | 46 | 1011.2 |
| 20260506062405 | 10 | 209 | 3.2 | 3.2 | 0.00 | 0.00 | 0.00 | 53 | 1010.9 |
| 20260506061702 | 11 | 337 | 8.0 | 19.3 | 0.00 | 0.00 | 0.00 | 52 | 1010.8 |
| 20260506061012 | 11 | 253 | 3.2 | 4.8 | 0.00 | 0.00 | 0.00 | 58 | 1010.7 |
| 20260506060309 | 11 | 25 | 3.2 | 3.2 | 0.00 | 0.00 | 0.00 | 59 | 1010.6 |
| 20260506051405 | 5 | 300 | 3.2 | 9.7 | 0.00 | 0.00 | 0.00 | 71 | 1010.1 |
| 20260506050702 | 4 | 245 | 1.6 | 4.8 | 0.00 | 0.00 | 0.00 | 73 | 1010.2 |
| 20260506044609 | 3 | 118 | 4.8 | 4.8 | 0.00 | 0.00 | 0.00 | 77 | 1009.9 |
| 20260506043907 | 2 | 49 | 3.2 | 4.8 | 0.00 | 0.00 | 0.00 | 77 | 1009.8 |
| 20260506043203 | 2 | 297 | 3.2 | 9.7 | 0.00 | 0.00 | 0.00 | 77 | 1009.8 |
| 20260506042501 | 2 | 182 | 8.0 | 8.0 | 0.00 | 0.00 | 0.00 | 77 | 1009.7 |
| 20260506041811 | 2 | 116 | 3.2 | 9.7 | 0.00 | 0.00 | 0.00 | 79 | 1009.6 |
| 20260506041107 | 2 | 262 | 3.2 | 8.0 | 0.00 | 0.00 | 0.00 | 81 | 1009.6 |
| 20260506040405 | 2 | 22 | 1.6 | 0.0 | 0.00 | 0.00 | 0.00 | 82 | 1009.7 |
| 20260506035704 | 1 | 22 | 0.0 | 0.0 | 0.00 | 0.00 | 0.00 | 84 | 1009.5 |
| 20260506035003 | 1 | 82 | 0.0 | 1.6 | 0.00 | 0.00 | 0.00 | 84 | 1009.4 |
| 20260506034313 | 1 | 61 | 0.0 | 3.2 | 0.00 | 0.00 | 0.00 | 85 | 1009.3 |
| 20260506033610 | 0 | 66 | 1.6 | 3.2 | 0.00 | 0.00 | 0.00 | 86 | 1009.1 |
| 20260506032910 | 0 | 129 | 0.0 | 0.0 | 0.00 | 0.00 | 0.00 | 87 | 1009.1 |
| 20260506032207 | 0 | 142 | 0.0 | 0.0 | 0.00 | 0.00 | 0.00 | 87 | 1009.0 |
| 20260506031506 | 0 | 249 | 1.6 | 3.2 | 0.00 | 0.00 | 0.00 | 88 | 1008.9 |
| 20260506030805 | -1 | 248 | 0.0 | 0.0 | 0.00 | 0.00 | 0.00 | 88 | 1008.9 |
| 20260506025411 | -1 | 248 | 0.0 | 1.6 | 0.00 | 0.00 | 0.00 | 88 | 1008.8 |
| 20260506024709 | -2 | 248 | 0.0 | 1.6 | 0.00 | 0.00 | 0.00 | 88 | 1008.6 |
| 20260506024007 | -2 | 248 | 0.0 | 0.0 | 0.00 | 0.00 | 0.00 | 87 | 1008.8 |
| 20260506023305 | -1 | 248 | 0.0 | 0.0 | 0.00 | 0.00 | 0.00 | 87 | 1008.7 |
| 20260506022602 | -1 | 248 | 0.0 | 0.0 | 0.00 | 0.00 | 0.00 | 87 | 1008.6 |
| 20260506021912 | -1 | 248 | 0.0 | 1.6 | 0.00 | 0.00 | 0.00 | 86 | 1008.4 |
| 20260506021209 | -1 | 248 | 0.0 | 1.6 | 0.00 | 0.00 | 0.00 | 86 | 1008.3 |
| 20260506020507 | -1 | 248 | 0.0 | 0.0 | 0.00 | 0.00 | 0.00 | 86 | 1008.3 |
| 20260506015805 | -1 | 248 | 0.0 | 0.0 | 0.00 | 0.00 | 0.00 | 86 | 1008.2 |
| 20260506015104 | -1 | 248 | 0.0 | 3.2 | 0.00 | 0.00 | 0.00 | 86 | 1008.3 |
| 20260506014403 | -1 | 248 | 0.0 | 1.6 | 0.00 | 0.00 | 0.00 | 86 | 1008.2 |
| 20260506013712 | -1 | 248 | 0.0 | 0.0 | 0.00 | 0.00 | 0.00 | 85 | 1008.0 |
| 20260506013010 | 0 | 248 | 0.0 | 0.0 | 0.00 | 0.00 | 0.00 | 85 | 1007.9 |
| 20260506012309 | 0 | 248 | 1.6 | 1.6 | 0.00 | 0.00 | 0.00 | 85 | 1008.0 |
| 20260506011607 | 0 | 248 | 0.0 | 1.6 | 0.00 | 0.00 | 0.00 | 84 | 1008.1 |
| 20260506010906 | 0 | 248 | 0.0 | 1.6 | 0.00 | 0.00 | 0.00 | 84 | 1007.9 |
| 20260506010205 | 0 | 248 | 0.0 | 3.2 | 0.00 | 0.00 | 0.00 | 84 | 1007.9 |
| 20260506005503 | 0 | 248 | 0.0 | 3.2 | 0.00 | 0.00 | 0.00 | 84 | 1007.8 |
| 20260506004812 | 0 | 248 | 1.6 | 4.8 | 0.00 | 0.00 | 0.00 | 85 | 1007.7 |
| 20260506004109 | 0 | 248 | 0.0 | 3.2 | 0.00 | 0.00 | 0.00 | 85 | 1007.6 |
| 20260506003408 | 0 | 248 | 0.0 | 1.6 | 0.00 | 0.00 | 0.00 | 84 | 1007.5 |
| 20260506002707 | 0 | 248 | 1.6 | 1.6 | 0.00 | 0.00 | 0.00 | 84 | 1007.4 |
| 20260506002006 | 0 | 248 | 1.6 | 1.6 | 0.00 | 0.00 | 0.00 | 84 | 1007.4 |
| 20260506001304 | 0 | 248 | 0.0 | 1.6 | 0.00 | 0.05 | 0.00 | 84 | 1007.3 |
| 20260506000613 | -1 | 248 | 1.6 | 3.2 | 0.00 | 0.05 | 0.00 | 84 | 1007.2 |
| 20260505235911 | 0 | 248 | 0.0 | 3.2 | 0.00 | 0.05 | 0.00 | 83 | 1007.1 |
| 20260505235209 | 0 | 248 | 0.0 | 3.2 | 0.00 | 0.05 | 0.00 | 83 | 1007.0 |
| 20260505234506 | 0 | 248 | 1.6 | 3.2 | 0.00 | 0.05 | 0.00 | 83 | 1007.2 |
| 20260505233804 | 0 | 248 | 0.0 | 1.6 | 0.00 | 0.05 | 0.00 | 83 | 1007.2 |
| 20260505233101 | 0 | 276 | 1.6 | 3.2 | 0.00 | 0.05 | 0.00 | 83 | 1007.1 |
| 20260505232411 | 0 | 248 | 1.6 | 4.8 | 0.00 | 0.05 | 0.00 | 83 | 1007.1 |
| 20260505231709 | 0 | 248 | 1.6 | 3.2 | 0.00 | 0.05 | 0.00 | 83 | 1007.0 |
| 20260505231007 | 0 | 248 | 1.6 | 3.2 | 0.00 | 0.05 | 0.00 | 83 | 1006.9 |
| 20260505230304 | 0 | 248 | 0.0 | 0.0 | 0.00 | 0.05 | 0.00 | 82 | 1006.7 |
| 20260505225602 | 0 | 248 | 1.6 | 3.2 | 0.00 | 0.05 | 0.00 | 82 | 1006.7 |
| 20260505224912 | 0 | 248 | 0.0 | 1.6 | 0.00 | 0.05 | 0.00 | 82 | 1006.7 |
| 20260505224210 | 0 | 248 | 0.0 | 0.0 | 0.00 | 0.05 | 0.00 | 82 | 1006.6 |
| 20260505223507 | 0 | 248 | 0.0 | 1.6 | 0.00 | 0.05 | 0.00 | 81 | 1006.6 |
| 20260505222804 | 0 | 248 | 0.0 | 3.2 | 0.00 | 0.05 | 0.00 | 81 | 1006.5 |
| 20260505222101 | 0 | 248 | 0.0 | 1.6 | 0.00 | 0.05 | 0.00 | 80 | 1006.6 |
| 20260505221412 | 0 | 248 | 0.0 | 0.0 | 0.00 | 0.05 | 0.00 | 79 | 1006.6 |
| 20260505220709 | 0 | 248 | 0.0 | 1.6 | 0.00 | 0.05 | 0.00 | 79 | 1006.7 |
| 20260505220007 | 0 | 248 | 0.0 | 0.0 | 0.00 | 0.05 | 0.05 | 78 | 1006.6 |
| 20260505215306 | 0 | 248 | 0.0 | 0.0 | 0.00 | 0.05 | 0.05 | 77 | 1006.6 |
| 20260505214604 | 0 | 248 | 0.0 | 0.0 | 0.00 | 0.05 | 0.05 | 77 | 1006.6 |
| 20260505213901 | 0 | 248 | 0.0 | 0.0 | 0.00 | 0.05 | 0.05 | 77 | 1006.5 |
| 20260505213212 | 0 | 248 | 0.0 | 1.6 | 0.00 | 0.05 | 0.05 | 76 | 1006.4 |
| 20260505212509 | 0 | 248 | 0.0 | 0.0 | 0.00 | 0.05 | 0.05 | 75 | 1006.3 |
| 20260505211807 | 0 | 248 | 0.0 | 1.6 | 0.00 | 0.05 | 0.05 | 75 | 1006.3 |
| 20260505211105 | 0 | 248 | 0.0 | 0.0 | 0.00 | 0.05 | 0.05 | 75 | 1006.2 |
| 20260505210403 | 0 | 248 | 0.0 | 0.0 | 0.00 | 0.05 | 0.05 | 74 | 1006.1 |
| 20260505205702 | 0 | 248 | 0.0 | 0.0 | 0.00 | 0.05 | 0.05 | 73 | 1006.0 |
| 20260505205011 | 0 | 248 | 0.0 | 0.0 | 0.00 | 0.05 | 0.05 | 73 | 1005.9 |
| 20260505204309 | 0 | 248 | 0.0 | 0.0 | 0.00 | 0.05 | 0.05 | 73 | 1005.8 |
| 20260505203606 | 0 | 248 | 0.0 | 0.0 | 0.00 | 0.05 | 0.05 | 72 | 1005.7 |
| 20260505202906 | 1 | 248 | 0.0 | 1.6 | 0.00 | 0.05 | 0.05 | 72 | 1005.6 |
| 20260505202205 | 1 | 248 | 0.0 | 3.2 | 0.00 | 0.05 | 0.05 | 72 | 1005.6 |
| 20260505201503 | 0 | 248 | 0.0 | 1.6 | 0.00 | 0.05 | 0.05 | 71 | 1005.6 |
| 20260505200813 | 0 | 248 | 0.0 | 0.0 | 0.00 | 0.05 | 0.05 | 71 | 1005.5 |
| 20260505200112 | 1 | 248 | 0.0 | 0.0 | 0.00 | 0.05 | 0.05 | 70 | 1005.4 |
| 20260505195411 | 1 | 248 | 0.0 | 0.0 | 0.00 | 0.05 | 0.05 | 68 | 1005.4 |
| 20260505194709 | 1 | 248 | 0.0 | 0.0 | 0.00 | 0.05 | 0.05 | 68 | 1005.3 |
| 20260505194006 | 1 | 248 | 0.0 | 0.0 | 0.00 | 0.05 | 0.05 | 66 | 1005.3 |
| 20260505193304 | 1 | 248 | 0.0 | 0.0 | 0.00 | 0.05 | 0.05 | 65 | 1005.3 |
| 20260505192602 | 1 | 248 | 0.0 | 0.0 | 0.00 | 0.05 | 0.05 | 65 | 1005.2 |
| 20260505191911 | 1 | 248 | 0.0 | 0.0 | 0.00 | 0.05 | 0.05 | 65 | 1005.3 |
| 20260505191209 | 2 | 248 | 0.0 | 0.0 | 0.00 | 0.05 | 0.05 | 64 | 1005.3 |
| 20260505190507 | 2 | 248 | 0.0 | 0.0 | 0.00 | 0.05 | 0.05 | 63 | 1005.3 |
| 20260505185805 | 2 | 248 | 0.0 | 0.0 | 0.00 | 0.05 | 0.05 | 62 | 1005.2 |
| 20260505185103 | 3 | 248 | 0.0 | 1.6 | 0.00 | 0.05 | 0.05 | 61 | 1005.2 |
| 20260505184412 | 3 | 248 | 0.0 | 3.2 | 0.00 | 0.05 | 0.05 | 60 | 1005.1 |
| 20260505183711 | 3 | 248 | 0.0 | 1.6 | 0.00 | 0.05 | 0.05 | 59 | 1005.1 |
| 20260505183009 | 3 | 248 | 1.6 | 3.2 | 0.00 | 0.05 | 0.05 | 58 | 1004.9 |
| 20260505182306 | 4 | 248 | 1.6 | 1.6 | 0.00 | 0.05 | 0.05 | 57 | 1004.9 |
| 20260505181604 | 5 | 248 | 1.6 | 1.6 | 0.00 | 0.05 | 0.05 | 56 | 1004.8 |
| 20260505180912 | 5 | 248 | 1.6 | 3.2 | 0.00 | 0.05 | 0.05 | 55 | 1004.8 |
| 20260505180211 | 5 | 248 | 1.6 | 3.2 | 0.00 | 0.05 | 0.05 | 54 | 1004.7 |
| 20260505175511 | 5 | 248 | 1.6 | 3.2 | 0.00 | 0.05 | 0.05 | 54 | 1004.6 |
| 20260505174810 | 6 | 248 | 1.6 | 3.2 | 0.00 | 0.05 | 0.05 | 52 | 1004.5 |
| 20260505174109 | 6 | 248 | 1.6 | 3.2 | 0.00 | 0.05 | 0.05 | 53 | 1004.5 |
| 20260505173405 | 6 | 248 | 0.0 | 1.6 | 0.00 | 0.05 | 0.05 | 52 | 1004.5 |
| 20260505172703 | 6 | 247 | 3.2 | 4.8 | 0.00 | 0.05 | 0.05 | 50 | 1004.4 |
| 20260505172001 | 7 | 248 | 1.6 | 3.2 | 0.00 | 0.05 | 0.05 | 50 | 1004.4 |
| 20260505171311 | 7 | 248 | 3.2 | 3.2 | 0.00 | 0.05 | 0.05 | 49 | 1004.4 |
| 20260505170610 | 7 | 257 | 4.8 | 11.3 | 0.00 | 0.05 | 0.05 | 49 | 1004.3 |
| 20260505165907 | 7 | 353 | 4.8 | 12.9 | 0.00 | 0.05 | 0.05 | 48 | 1004.2 |
| 20260505165205 | 7 | 267 | 4.8 | 8.0 | 0.00 | 0.05 | 0.05 | 48 | 1004.2 |
| 20260505164503 | 7 | 248 | 3.2 | 4.8 | 0.00 | 0.05 | 0.05 | 48 | 1004.1 |
| 20260505163813 | 8 | 266 | 3.2 | 4.8 | 0.00 | 0.05 | 0.05 | 48 | 1004.1 |
| 20260505163111 | 8 | 353 | 3.2 | 11.3 | 0.00 | 0.05 | 0.05 | 47 | 1004.2 |
| 20260505162409 | 8 | 254 | 9.7 | 12.9 | 0.00 | 0.05 | 0.05 | 47 | 1004.3 |
| 20260505161707 | 8 | 10 | 4.8 | 11.3 | 0.00 | 0.05 | 0.05 | 48 | 1004.3 |
| 20260505161006 | 8 | 248 | 3.2 | 4.8 | 0.00 | 0.05 | 0.05 | 50 | 1004.3 |
| 20260505160303 | 8 | 283 | 1.6 | 3.2 | 0.00 | 0.05 | 0.05 | 50 | 1004.2 |
| 20260505152804 | 8 | 248 | 1.6 | 4.8 | 0.00 | 0.05 | 0.05 | 49 | 1004.1 |
| 20260505152102 | 8 | 250 | 3.2 | 4.8 | 0.00 | 0.05 | 0.05 | 49 | 1004.1 |
| 20260505151413 | 9 | 17 | 4.8 | 19.3 | 0.00 | 0.05 | 0.05 | 49 | 1004.1 |
| 20260505150711 | 9 | 274 | 4.8 | 8.0 | 0.00 | 0.05 | 0.05 | 49 | 1003.9 |